PAL659 OMDB-RPLL

Flight info

Callsign PAL659
Flight time N/A
Altitude 31000
Route IVURO M428 MUNGA A777 VAXIM L301 RASKI L639 BPL A791 ARIVO/N0514F330 A791 CEA B465 CTG A599 LINSO/K0948S1010 A599 LXI/K0937S1070 A599 POU B330 TAMOT/N0505F350 B330 BIGEX DCT POVAM DCT NOPER V642 NOMAN A461 AVMUP W16 TADEL TADEL5R
Aircraft B744/H-SDE3FGHIM1M2RWXY/LB1

Departure

Time 2026-05-05 23:26
Airport Dubai International Airport (OMDB)

Arrival

Time N/A
Airport Ninoy Aquino International Airport (RPLL)
Time Latitude Longitude Altitude Speed Heading
2026-05-05 23:01 25.24217 55.37599 33 ft 0 kts 248°
2026-05-05 23:11 25.24218 55.37602 33 ft 0 kts 248°
2026-05-05 23:11 25.24222 55.37613 33 ft 2 kts 242°
2026-05-05 23:12 25.24231 55.37626 33 ft 2 kts 224°
2026-05-05 23:12 25.24243 55.37636 33 ft 2 kts 210°
2026-05-05 23:12 25.24256 55.37643 33 ft 2 kts 196°
2026-05-05 23:12 25.24271 55.37646 34 ft 2 kts 182°
2026-05-05 23:13 25.24286 55.37645 34 ft 2 kts 168°
2026-05-05 23:13 25.24300 55.37640 35 ft 2 kts 154°
2026-05-05 23:13 25.24313 55.37632 35 ft 2 kts 140°
2026-05-05 23:13 25.24323 55.37620 35 ft 2 kts 126°
2026-05-05 23:14 25.24327 55.37614 35 ft 0 kts 121°
2026-05-05 23:19 25.24326 55.37615 35 ft 1 kts 121°
2026-05-05 23:19 25.24318 55.37631 35 ft 1 kts 121°
2026-05-05 23:19 25.24312 55.37641 35 ft 3 kts 121°
2026-05-05 23:19 25.24297 55.37676 36 ft 5 kts 115°
2026-05-05 23:20 25.24267 55.37736 36 ft 9 kts 98°
2026-05-05 23:20 25.24270 55.37752 37 ft 0 kts 60°
2026-05-05 23:20 25.24278 55.37764 37 ft 4 kts 49°
2026-05-05 23:20 25.24319 55.37807 39 ft 11 kts 35°
2026-05-05 23:21 25.24413 55.37875 38 ft 20 kts 33°
2026-05-05 23:21 25.24531 55.37964 36 ft 19 kts 33°
2026-05-05 23:21 25.24588 55.38048 36 ft 12 kts 102°
2026-05-05 23:21 25.24557 55.38113 36 ft 6 kts 104°
2026-05-05 23:22 25.24567 55.38145 37 ft 4 kts 34°
2026-05-05 23:22 25.24607 55.38171 36 ft 10 kts 30°
2026-05-05 23:22 25.24671 55.38211 36 ft 2 kts 30°
2026-05-05 23:22 25.24678 55.38216 36 ft 1 kts 25°
2026-05-05 23:23 25.24709 55.38213 36 ft 8 kts 322°
2026-05-05 23:23 25.24743 55.38150 35 ft 10 kts 295°
2026-05-05 23:23 25.24777 55.38081 34 ft 0 kts 301°
2026-05-05 23:23 25.24779 55.38077 34 ft 0 kts 301°
2026-05-05 23:24 25.24842 55.37963 32 ft 41 kts 302°
2026-05-05 23:24 25.25080 55.37535 28 ft 88 kts 301°
2026-05-05 23:24 25.25483 55.36809 25 ft 133 kts 302°
2026-05-05 23:24 25.26036 55.35813 25 ft 171 kts 302°
2026-05-05 23:25 25.26885 55.34241 422 ft 174 kts 301°
2026-05-05 23:25 25.27303 55.33453 441 ft 181 kts 301°
2026-05-05 23:25 25.27975 55.32212 488 ft 192 kts 301°
2026-05-05 23:25 25.28747 55.30957 576 ft 204 kts 315°
2026-05-05 23:26 25.29944 55.30040 609 ft 219 kts 341°
2026-05-05 23:26 25.31485 55.29691 801 ft 230 kts 359°
2026-05-05 23:26 25.33103 55.29668 1301 ft 231 kts
2026-05-05 23:26 25.34710 55.29600 1823 ft 229 kts 359°
2026-05-05 23:27 25.36295 55.29558 2253 ft 230 kts
2026-05-05 23:27 25.37901 55.29641 2671 ft 233 kts
2026-05-05 23:27 25.39533 55.29773 3046 ft 235 kts 15°
2026-05-05 23:27 25.41044 55.30496 3362 ft 238 kts 38°
2026-05-05 23:28 25.42174 55.31844 3634 ft 245 kts 59°
2026-05-05 23:28 25.43012 55.33537 3897 ft 254 kts 62°
2026-05-05 23:28 25.43902 55.35282 4102 ft 266 kts 58°
2026-05-05 23:28 25.44981 55.36943 4560 ft 267 kts 49°
2026-05-05 23:29 25.46207 55.38515 4974 ft 270 kts 50°
2026-05-05 23:29 25.47416 55.40128 5378 ft 274 kts 50°
2026-05-05 23:29 25.48619 55.41759 5768 ft 277 kts 50°
2026-05-05 23:29 25.49818 55.43475 6168 ft 280 kts 52°
2026-05-05 23:30 25.51030 55.45219 6542 ft 283 kts 51°
2026-05-05 23:30 25.52245 55.46943 6900 ft 285 kts 52°
2026-05-05 23:30 25.53343 55.48786 7246 ft 288 kts 67°
2026-05-05 23:30 25.53850 55.50927 7616 ft 290 kts 87°
2026-05-05 23:31 25.53661 55.53140 7992 ft 290 kts 107°
2026-05-05 23:31 25.52805 55.55138 8370 ft 291 kts 126°
2026-05-05 23:31 25.51877 55.56427 8662 ft 290 kts 129°
2026-05-05 23:31 25.50599 55.58157 9063 ft 290 kts 128°
2026-05-05 23:32 25.49336 55.59930 9453 ft 291 kts 128°
2026-05-05 23:32 25.48080 55.61700 9831 ft 293 kts 129°
2026-05-05 23:32 25.46806 55.63475 10140 ft 296 kts 128°
2026-05-05 23:32 25.45499 55.65292 10473 ft 300 kts 129°
2026-05-05 23:33 25.44195 55.67117 10745 ft 303 kts 128°
2026-05-05 23:33 25.42904 55.68966 10953 ft 309 kts 122°
2026-05-05 23:33 25.41979 55.71154 11094 ft 317 kts 104°
2026-05-05 23:33 25.41571 55.73573 11168 ft 328 kts 98°
2026-05-05 23:34 25.41200 55.76113 11303 ft 335 kts 102°
2026-05-05 23:34 25.40674 55.78612 11580 ft 336 kts 104°
2026-05-05 23:34 25.40110 55.81138 11941 ft 336 kts 103°
2026-05-05 23:34 25.39566 55.83664 12309 ft 337 kts 103°
2026-05-05 23:35 25.39020 55.86192 12549 ft 339 kts 102°
2026-05-05 23:35 25.38475 55.88740 12821 ft 339 kts 102°
2026-05-05 23:35 25.37931 55.91292 13153 ft 341 kts 102°
2026-05-05 23:35 25.37401 55.93856 13440 ft 342 kts 101°
2026-05-05 23:36 25.36859 55.96430 13757 ft 344 kts 102°
2026-05-05 23:36 25.36302 55.98994 14102 ft 346 kts 102°
2026-05-05 23:36 25.35743 56.01591 14451 ft 348 kts 102°
2026-05-05 23:36 25.35180 56.04215 14811 ft 350 kts 102°
2026-05-05 23:37 25.34618 56.06835 15169 ft 351 kts 102°
2026-05-05 23:37 25.34050 56.09463 15505 ft 354 kts 102°
2026-05-05 23:37 25.33479 56.12111 15889 ft 354 kts 102°
2026-05-05 23:37 25.32910 56.14766 16228 ft 356 kts 102°
2026-05-05 23:38 25.32180 56.17412 16614 ft 359 kts 109°
2026-05-05 23:38 25.31283 56.19991 16975 ft 361 kts 109°
2026-05-05 23:38 25.30422 56.22593 17364 ft 362 kts 108°
2026-05-05 23:38 25.29546 56.25242 17713 ft 365 kts 108°
2026-05-05 23:39 25.28689 56.27852 18021 ft 368 kts 108°
2026-05-05 23:39 25.27799 56.30560 18355 ft 371 kts 108°
2026-05-05 23:39 25.26933 56.33210 18673 ft 374 kts 108°
2026-05-05 23:39 25.26033 56.35942 18983 ft 378 kts 109°
2026-05-05 23:40 25.25136 56.38686 19332 ft 380 kts 109°
2026-05-05 23:40 25.24223 56.41435 19644 ft 383 kts 109°
2026-05-05 23:40 25.23321 56.44167 19999 ft 386 kts 109°
2026-05-05 23:40 25.22394 56.46972 20375 ft 391 kts 109°
2026-05-05 23:41 25.21459 56.49797 20830 ft 394 kts 109°
2026-05-05 23:41 25.20512 56.52658 21232 ft 397 kts 109°
2026-05-05 23:41 25.19559 56.55530 21671 ft 400 kts 110°
2026-05-05 23:41 25.18597 56.58409 22052 ft 404 kts 111°
2026-05-05 23:42 25.17511 56.61293 22431 ft 407 kts 113°
2026-05-05 23:42 25.16419 56.64147 22812 ft 410 kts 112°
2026-05-05 23:42 25.15323 56.67068 23150 ft 414 kts 113°
2026-05-05 23:42 25.14210 56.70017 23492 ft 418 kts 113°
2026-05-05 23:43 25.13093 56.72975 23849 ft 421 kts 113°
2026-05-05 23:43 25.11963 56.75956 24193 ft 423 kts 113°
2026-05-05 23:43 25.10826 56.78956 24539 ft 426 kts 113°
2026-05-05 23:43 25.09685 56.81967 24870 ft 428 kts 113°
2026-05-05 23:44 25.08533 56.85006 25185 ft 431 kts 113°
2026-05-05 23:44 25.07368 56.88076 25507 ft 433 kts 113°
2026-05-05 23:44 25.06213 56.91122 25824 ft 436 kts 113°
2026-05-05 23:44 25.05042 56.94203 26131 ft 438 kts 113°
2026-05-05 23:45 25.03852 56.97339 26424 ft 440 kts 113°
2026-05-05 23:45 25.02682 57.00427 26695 ft 443 kts 113°
2026-05-05 23:45 25.01478 57.03598 26992 ft 445 kts 113°
2026-05-05 23:45 25.00286 57.06745 27281 ft 447 kts 113°
2026-05-05 23:46 24.99097 57.09869 27555 ft 449 kts 113°
2026-05-05 23:46 24.97873 57.13074 27829 ft 451 kts 113°
2026-05-05 23:46 24.96664 57.16242 28090 ft 453 kts 113°
2026-05-05 23:46 24.95447 57.19436 28341 ft 455 kts 113°
2026-05-05 23:47 24.94205 57.22682 28575 ft 457 kts 113°
2026-05-05 23:47 24.92977 57.25895 28829 ft 459 kts 113°
2026-05-05 23:47 24.91738 57.29135 29030 ft 461 kts 113°
2026-05-05 23:47 24.90487 57.32404 29218 ft 463 kts 113°
2026-05-05 23:48 24.89233 57.35685 29410 ft 465 kts 113°
2026-05-05 23:48 24.87974 57.38961 29590 ft 467 kts 113°
2026-05-05 23:48 24.86705 57.42269 29777 ft 469 kts 113°
2026-05-05 23:48 24.85435 57.45582 29968 ft 471 kts 113°
2026-05-05 23:49 24.84170 57.48870 30163 ft 472 kts 114°
2026-05-05 23:49 24.82881 57.52222 30372 ft 473 kts 114°
2026-05-05 23:49 24.81598 57.55570 30569 ft 474 kts 114°
2026-05-05 23:49 24.80323 57.58880 30706 ft 477 kts 114°
2026-05-05 23:50 24.77693 57.65686 30827 ft 486 kts 114°
2026-05-05 23:50 24.75018 57.72599 30851 ft 499 kts 114°
2026-05-05 23:51 24.72376 57.79784 30846 ft 513 kts 109°
2026-05-05 23:51 24.70078 57.87286 30846 ft 527 kts 110°
2026-05-05 23:52 24.67674 57.94974 30826 ft 532 kts 109°
2026-05-05 23:52 24.65273 58.02641 30781 ft 528 kts 109°
2026-05-05 23:53 24.62878 58.10269 30786 ft 531 kts 109°
2026-05-05 23:53 24.60453 58.17973 30784 ft 531 kts 109°
2026-05-05 23:54 24.58042 58.25627 30781 ft 530 kts 109°
2026-05-05 23:54 24.55635 58.33258 30779 ft 529 kts 109°
2026-05-05 23:55 24.53211 58.40929 30773 ft 529 kts 109°
2026-05-05 23:55 24.50809 58.48515 30774 ft 528 kts 109°
2026-05-05 23:56 24.48395 58.56128 30772 ft 528 kts 109°
2026-05-05 23:56 24.45980 58.63717 30776 ft 528 kts 109°
2026-05-05 23:57 24.43537 58.71381 30768 ft 527 kts 109°
2026-05-05 23:57 24.40870 58.78835 30750 ft 526 kts 117°
2026-05-05 23:58 24.37579 58.86062 30784 ft 529 kts 116°
2026-05-05 23:58 24.34358 58.93284 30776 ft 527 kts 116°
2026-05-05 23:59 24.31144 59.00500 30773 ft 527 kts 116°
2026-05-05 23:59 24.27914 59.07730 30770 ft 526 kts 116°
2026-05-06 00:00 24.24696 59.14923 30766 ft 525 kts 116°
2026-05-06 00:00 24.21482 59.22091 30763 ft 525 kts 116°
2026-05-06 00:01 24.18248 59.29301 30765 ft 525 kts 116°
2026-05-06 00:01 24.15029 59.36465 30771 ft 525 kts 116°
2026-05-06 00:02 24.11795 59.43643 30778 ft 525 kts 116°
2026-05-06 00:02 24.08608 59.50774 30781 ft 525 kts 116°
2026-05-06 00:03 24.05339 59.57982 30783 ft 526 kts 116°
2026-05-06 00:03 24.02101 59.65130 30780 ft 526 kts 117°
2026-05-06 00:04 23.98860 59.72290 30779 ft 526 kts 117°
2026-05-06 00:04 23.95612 59.79449 30778 ft 524 kts 117°
2026-05-06 00:05 23.90743 59.90157 30779 ft 524 kts 116°
2026-05-06 00:06 23.87493 59.97297 30784 ft 525 kts 116°
2026-05-06 00:06 23.84230 60.04463 30784 ft 526 kts 116°
2026-05-06 00:07 23.80948 60.11643 30785 ft 526 kts 116°
2026-05-06 00:07 23.77691 60.18762 30784 ft 524 kts 116°
2026-05-06 00:08 23.74426 60.25891 30784 ft 524 kts 116°
2026-05-06 00:08 23.71156 60.33022 30786 ft 524 kts 116°
2026-05-06 00:09 23.67894 60.40130 30787 ft 524 kts 116°
2026-05-06 00:09 23.64631 60.47222 30788 ft 525 kts 116°
2026-05-06 00:10 23.61344 60.54361 30791 ft 526 kts 116°
2026-05-06 00:10 23.58060 60.61478 30793 ft 525 kts 116°
2026-05-06 00:11 23.54773 60.68583 30785 ft 523 kts 116°
2026-05-06 00:11 23.51484 60.75694 30793 ft 523 kts 116°
2026-05-06 00:12 23.48197 60.82781 30801 ft 524 kts 116°
2026-05-06 00:12 23.44912 60.89860 30808 ft 525 kts 116°
2026-05-06 00:13 23.41596 60.96991 30807 ft 525 kts 116°
2026-05-06 00:13 23.38305 61.04068 30803 ft 525 kts 116°
2026-05-06 00:14 23.34996 61.11156 30803 ft 525 kts 116°
2026-05-06 00:14 23.31881 61.18341 30773 ft 524 kts 107°
2026-05-06 00:14 23.31075 61.22199 30784 ft 522 kts 95°
2026-05-06 00:15 23.30836 61.26154 30825 ft 522 kts 91°
2026-05-06 00:15 23.30245 61.34022 30826 ft 523 kts 94°
2026-05-06 00:16 23.29575 61.41883 30812 ft 521 kts 94°
2026-05-06 00:16 23.28885 61.49714 30808 ft 520 kts 94°
2026-05-06 00:17 23.28182 61.57572 30806 ft 520 kts 94°
2026-05-06 00:17 23.27474 61.65396 30807 ft 522 kts 94°
2026-05-06 00:18 23.26763 61.73246 30804 ft 523 kts 94°
2026-05-06 00:18 23.26043 61.81138 30802 ft 523 kts 94°
2026-05-06 00:19 23.25320 61.88987 30803 ft 523 kts 94°
2026-05-06 00:19 23.24593 61.96865 30803 ft 522 kts 94°
2026-05-06 00:20 23.23862 62.04717 30805 ft 521 kts 94°
2026-05-06 00:20 23.23134 62.12539 30806 ft 521 kts 94°
2026-05-06 00:21 23.22397 62.20366 30811 ft 521 kts 94°
2026-05-06 00:21 23.21655 62.28222 30813 ft 521 kts 94°
2026-05-06 00:22 23.20914 62.36038 30814 ft 522 kts 94°
2026-05-06 00:22 23.20160 62.43922 30819 ft 523 kts 94°
2026-05-06 00:23 23.19408 62.51781 30822 ft 523 kts 94°
2026-05-06 00:23 23.18645 62.59663 30826 ft 523 kts 94°
2026-05-06 00:24 23.17882 62.67527 30821 ft 523 kts 94°
2026-05-06 00:24 23.17120 62.75366 30822 ft 522 kts 94°
2026-05-06 00:25 23.16349 62.83222 30818 ft 523 kts 94°
2026-05-06 00:25 23.15575 62.91078 30814 ft 523 kts 94°
2026-05-06 00:26 23.14801 62.98924 30818 ft 524 kts 94°
2026-05-06 00:26 23.14010 63.06830 30822 ft 523 kts 94°
2026-05-06 00:27 23.13230 63.14667 30821 ft 522 kts 94°
2026-05-06 00:27 23.12441 63.22512 30831 ft 523 kts 94°
2026-05-06 00:28 23.11648 63.30367 30842 ft 524 kts 94°
2026-05-06 00:28 23.10849 63.38229 30843 ft 524 kts 94°
2026-05-06 00:29 23.10045 63.46101 30839 ft 522 kts 94°
2026-05-06 00:29 23.09245 63.53912 30841 ft 522 kts 94°
2026-05-06 00:30 23.08431 63.61787 30844 ft 521 kts 94°
2026-05-06 00:30 23.07624 63.69591 30838 ft 522 kts 95°
2026-05-06 00:31 23.06806 63.77436 30842 ft 523 kts 95°
2026-05-06 00:31 23.05984 63.85281 30844 ft 524 kts 95°
2026-05-06 00:32 23.05190 63.93134 30844 ft 524 kts 94°
2026-05-06 00:32 23.04386 64.01024 30843 ft 524 kts 94°
2026-05-06 00:33 23.03582 64.08887 30841 ft 523 kts 94°
2026-05-06 00:33 23.02777 64.16726 30843 ft 522 kts 94°
2026-05-06 00:34 23.01970 64.24565 30845 ft 523 kts 94°
2026-05-06 00:34 23.01156 64.32438 30841 ft 524 kts 94°
2026-05-06 00:35 23.00338 64.40304 30832 ft 525 kts 94°
2026-05-06 00:35 22.99514 64.48184 30822 ft 523 kts 94°
2026-05-06 00:36 22.98691 64.56000 30824 ft 523 kts 94°
2026-05-06 00:36 22.97859 64.63876 30832 ft 524 kts 94°
2026-05-06 00:37 22.97024 64.71735 30830 ft 525 kts 95°
2026-05-06 00:37 22.96187 64.79626 30838 ft 525 kts 95°
2026-05-06 00:38 22.95747 64.87432 30826 ft 520 kts 85°
2026-05-06 00:38 22.95859 64.95292 30848 ft 522 kts 87°
2026-05-06 00:39 22.95913 65.03199 30847 ft 523 kts 87°
2026-05-06 00:39 22.95954 65.11056 30836 ft 523 kts 87°
2026-05-06 00:40 22.95988 65.18954 30832 ft 521 kts 87°
2026-05-06 00:40 22.96026 65.26813 30843 ft 521 kts 87°
2026-05-06 00:41 22.96052 65.34692 30839 ft 522 kts 87°
2026-05-06 00:41 22.96081 65.42584 30840 ft 523 kts 87°
2026-05-06 00:42 22.96105 65.50491 30842 ft 525 kts 87°
2026-05-06 00:42 22.96119 65.58393 30831 ft 523 kts 87°
2026-05-06 00:43 22.96135 65.66264 30833 ft 522 kts 87°
2026-05-06 00:43 22.96144 65.74166 30832 ft 524 kts 87°
2026-05-06 00:44 22.96148 65.82098 30841 ft 525 kts 87°
2026-05-06 00:44 22.96155 65.90023 30838 ft 525 kts 88°
2026-05-06 00:45 22.96154 65.97886 30847 ft 523 kts 88°
2026-05-06 00:45 22.96141 66.05814 30842 ft 524 kts 87°
2026-05-06 00:46 22.96133 66.13732 30846 ft 524 kts 87°
2026-05-06 00:46 22.96122 66.21661 30846 ft 524 kts 87°
2026-05-06 00:47 22.96107 66.29539 30846 ft 525 kts 87°
2026-05-06 00:47 22.96088 66.37473 30846 ft 526 kts 87°
2026-05-06 00:48 22.96059 66.45441 30844 ft 525 kts 87°
2026-05-06 00:48 22.96026 66.53307 30841 ft 524 kts 87°
2026-05-06 00:49 22.95991 66.61259 30843 ft 525 kts 87°
2026-05-06 00:49 22.95959 66.69160 30836 ft 524 kts 87°
2026-05-06 00:50 22.95920 66.77068 30849 ft 525 kts 88°
2026-05-06 00:50 22.95882 66.85022 30843 ft 525 kts 87°
2026-05-06 00:51 22.95824 66.92943 30835 ft 526 kts 88°
2026-05-06 00:51 22.95792 67.00892 30829 ft 526 kts 86°
2026-05-06 00:52 22.95824 67.08807 30839 ft 525 kts 86°
2026-05-06 00:52 22.95848 67.16771 30838 ft 525 kts 86°
2026-05-06 00:53 22.95862 67.24666 30838 ft 525 kts 87°
2026-05-06 00:53 22.95865 67.32572 30841 ft 526 kts 86°
2026-05-06 00:54 22.95867 67.40507 30840 ft 526 kts 86°
2026-05-06 00:54 22.95865 67.48508 30839 ft 526 kts 86°
2026-05-06 00:55 22.95859 67.56408 30834 ft 525 kts 86°
2026-05-06 00:55 22.95855 67.64365 30845 ft 527 kts 86°
2026-05-06 00:56 22.95842 67.72331 30833 ft 527 kts 87°
2026-05-06 00:56 22.95830 67.80263 30836 ft 528 kts 87°
2026-05-06 00:57 22.95778 67.88269 30841 ft 529 kts 87°
2026-05-06 00:57 22.95813 67.96261 30836 ft 528 kts 86°
2026-05-06 00:58 22.95824 68.04325 30842 ft 529 kts 86°
2026-05-06 00:58 22.95830 68.12382 30849 ft 529 kts 87°
2026-05-06 00:59 22.95825 68.20397 30845 ft 529 kts 86°
2026-05-06 00:59 22.95825 68.28355 30842 ft 526 kts 86°
2026-05-06 01:00 22.95798 68.36320 30843 ft 527 kts 87°
2026-05-06 01:00 22.95419 68.44370 30850 ft 531 kts 90°
2026-05-06 01:01 22.94970 68.52397 30846 ft 529 kts 90°
2026-05-06 01:01 22.94507 68.60376 30843 ft 528 kts 90°
2026-05-06 01:02 22.94043 68.68381 30835 ft 528 kts 90°
2026-05-06 01:02 22.93570 68.76352 30842 ft 529 kts 90°
2026-05-06 01:03 22.93097 68.84357 30847 ft 530 kts 90°
2026-05-06 01:03 22.92625 68.92342 30849 ft 531 kts 90°
2026-05-06 01:04 22.92135 69.00384 30847 ft 530 kts 90°
2026-05-06 01:04 22.91651 69.08342 30854 ft 530 kts 90°
2026-05-06 01:05 22.91162 69.16304 30860 ft 530 kts 90°
2026-05-06 01:05 22.90665 69.24396 30860 ft 530 kts 90°
2026-05-06 01:06 22.90096 69.33573 30855 ft 530 kts 90°
2026-05-06 01:06 22.89585 69.41605 30843 ft 530 kts 90°
2026-05-06 01:07 22.89079 69.49593 30844 ft 531 kts 90°
2026-05-06 01:07 22.88570 69.57609 30846 ft 530 kts 90°
2026-05-06 01:08 22.88049 69.65636 30843 ft 530 kts 91°
2026-05-06 01:08 22.87525 69.73656 30841 ft 529 kts 90°
2026-05-06 01:09 22.87086 69.81622 30852 ft 530 kts 90°
2026-05-06 01:09 22.86624 69.89691 30853 ft 530 kts 90°
2026-05-06 01:10 22.86156 69.97666 30850 ft 530 kts 90°
2026-05-06 01:10 22.85678 70.05688 30844 ft 530 kts 90°
2026-05-06 01:11 22.85199 70.13679 30842 ft 531 kts 90°
2026-05-06 01:11 22.84715 70.21722 30843 ft 532 kts 90°
2026-05-06 01:12 22.84230 70.29720 30841 ft 529 kts 90°
2026-05-06 01:12 22.83738 70.37726 30846 ft 530 kts 90°
2026-05-06 01:13 22.83242 70.45713 30843 ft 530 kts 90°
2026-05-06 01:13 22.82741 70.53744 30846 ft 531 kts 90°
2026-05-06 01:14 22.81990 70.65746 30844 ft 530 kts 91°
2026-05-06 01:14 22.81486 70.73751 30846 ft 530 kts 91°
2026-05-06 01:15 22.80964 70.81738 30847 ft 529 kts 90°
2026-05-06 01:15 22.81039 70.85735 30814 ft 523 kts 78°
2026-05-06 01:15 22.81693 70.89611 30855 ft 520 kts 74°
2026-05-06 01:16 22.82964 70.97450 30870 ft 525 kts 76°
2026-05-06 01:16 22.84162 71.05292 30857 ft 523 kts 76°
2026-05-06 01:17 22.85334 71.13081 30854 ft 523 kts 76°
2026-05-06 01:17 22.86502 71.20924 30856 ft 523 kts 76°
2026-05-06 01:18 22.87660 71.28736 30865 ft 523 kts 76°
2026-05-06 01:18 22.88814 71.36556 30870 ft 523 kts 76°
2026-05-06 01:19 22.89976 71.44428 30873 ft 525 kts 76°
2026-05-06 01:19 22.91115 71.52213 30869 ft 524 kts 76°
2026-05-06 01:20 22.92263 71.60076 30864 ft 524 kts 76°
2026-05-06 01:20 22.93408 71.67938 30850 ft 525 kts 77°
2026-05-06 01:21 22.94550 71.75791 30851 ft 525 kts 76°
2026-05-06 01:21 22.95683 71.83640 30852 ft 525 kts 76°
2026-05-06 01:22 22.96816 71.91470 30852 ft 526 kts 77°
2026-05-06 01:22 22.97945 71.99334 30850 ft 526 kts 77°
2026-05-06 01:23 22.99078 72.07244 30847 ft 525 kts 76°
2026-05-06 01:23 23.00198 72.15119 30842 ft 525 kts 77°
2026-05-06 01:24 23.01315 72.22955 30847 ft 526 kts 77°
2026-05-06 01:24 23.02427 72.30854 30843 ft 526 kts 76°
2026-05-06 01:25 23.03538 72.38702 30849 ft 527 kts 77°
2026-05-06 01:25 23.04652 72.46647 30845 ft 527 kts 77°
2026-05-06 01:26 23.05776 72.54580 30839 ft 528 kts 77°
2026-05-06 01:26 23.06839 72.62515 30843 ft 529 kts 78°
2026-05-06 01:27 23.07331 72.70563 30839 ft 531 kts 82°
2026-05-06 01:27 23.07795 72.78579 30849 ft 532 kts 83°
2026-05-06 01:28 23.08244 72.86655 30847 ft 533 kts 83°
2026-05-06 01:28 23.08692 72.94693 30838 ft 534 kts 83°
2026-05-06 01:29 23.09130 73.02801 30838 ft 532 kts 82°
2026-05-06 01:29 23.09572 73.10818 30852 ft 533 kts 83°
2026-05-06 01:30 23.10000 73.18884 30862 ft 534 kts 83°
2026-05-06 01:30 23.10432 73.27014 30865 ft 535 kts 83°
2026-05-06 01:31 23.10854 73.35091 30867 ft 535 kts 83°
2026-05-06 01:31 23.11271 73.43185 30867 ft 532 kts 83°
2026-05-06 01:32 23.11688 73.51225 30873 ft 533 kts 83°
2026-05-06 01:32 23.12099 73.59289 30866 ft 532 kts 83°
2026-05-06 01:33 23.12505 73.67338 30860 ft 532 kts 83°
2026-05-06 01:33 23.12906 73.75391 30863 ft 532 kts 83°
2026-05-06 01:34 23.13299 73.83428 30874 ft 532 kts 83°
2026-05-06 01:34 23.13700 73.91510 30884 ft 533 kts 83°
2026-05-06 01:35 23.14091 73.99464 30882 ft 534 kts 83°
2026-05-06 01:35 23.14477 74.07571 30884 ft 535 kts 83°
2026-05-06 01:36 23.14857 74.15661 30875 ft 534 kts 83°
2026-05-06 01:36 23.15243 74.23739 30884 ft 532 kts 83°
2026-05-06 01:37 23.15602 74.31818 30885 ft 535 kts 84°
2026-05-06 01:37 23.15819 74.39973 30900 ft 538 kts 84°
2026-05-06 01:38 23.16005 74.48006 30901 ft 536 kts 85°
2026-05-06 01:38 23.16164 74.55793 30912 ft 536 kts 85°
2026-05-06 01:39 23.16326 74.63914 30901 ft 535 kts 85°
2026-05-06 01:39 23.16491 74.72036 30900 ft 534 kts 85°
2026-05-06 01:40 23.16646 74.80166 30912 ft 536 kts 85°
2026-05-06 01:40 23.16795 74.88335 30915 ft 538 kts 85°
2026-05-06 01:41 23.16943 74.96460 30929 ft 539 kts 85°
2026-05-06 01:41 23.17085 75.04655 30926 ft 538 kts 86°
2026-05-06 01:42 23.17208 75.12242 30931 ft 537 kts 85°
2026-05-06 01:42 23.17341 75.20374 30940 ft 537 kts 85°
2026-05-06 01:43 23.17472 75.28493 30948 ft 537 kts 86°
2026-05-06 01:43 23.17598 75.36657 30952 ft 539 kts 86°
2026-05-06 01:44 23.17723 75.44819 30951 ft 538 kts 86°
2026-05-06 01:44 23.17839 75.52947 30945 ft 537 kts 86°
2026-05-06 01:45 23.17948 75.61129 30956 ft 539 kts 86°
2026-05-06 01:45 23.18058 75.69199 30938 ft 538 kts 86°
2026-05-06 01:46 23.18161 75.77324 30941 ft 538 kts 86°
2026-05-06 01:46 23.18267 75.85456 30951 ft 538 kts 86°
2026-05-06 01:47 23.18368 75.93658 30951 ft 536 kts 86°
2026-05-06 01:47 23.18466 76.01778 30935 ft 537 kts 82°
2026-05-06 01:48 23.19199 76.09871 30958 ft 539 kts 82°
2026-05-06 01:48 23.19841 76.18027 30953 ft 538 kts 82°
2026-05-06 01:49 23.20467 76.26151 30945 ft 537 kts 82°
2026-05-06 01:49 23.21095 76.34271 30944 ft 538 kts 82°
2026-05-06 01:50 23.21715 76.42365 30944 ft 538 kts 83°
2026-05-06 01:50 23.22329 76.50528 30949 ft 539 kts 82°
2026-05-06 01:51 23.22939 76.58660 30950 ft 540 kts 82°
2026-05-06 01:51 23.23539 76.66800 30936 ft 537 kts 83°
2026-05-06 01:52 23.24147 76.74945 30935 ft 538 kts 83°
2026-05-06 01:52 23.24744 76.83055 30941 ft 538 kts 83°
2026-05-06 01:53 23.25341 76.91240 30939 ft 538 kts 83°
2026-05-06 01:53 23.25924 76.99343 30935 ft 539 kts 83°
2026-05-06 01:54 23.26511 77.07488 30934 ft 540 kts 83°
2026-05-06 01:54 23.27095 77.15679 30933 ft 539 kts 83°
2026-05-06 01:55 23.27683 77.23836 30923 ft 539 kts 83°
2026-05-06 01:55 23.28234 77.31984 30917 ft 539 kts 84°
2026-05-06 01:56 23.28066 77.40213 30920 ft 542 kts 91°
2026-05-06 01:56 23.27742 77.48468 30927 ft 543 kts 91°
2026-05-06 01:57 23.27405 77.56698 30933 ft 543 kts 91°
2026-05-06 01:57 23.27058 77.64934 30931 ft 543 kts 91°
2026-05-06 01:58 23.26711 77.73093 30922 ft 540 kts 91°
2026-05-06 01:58 23.26350 77.81362 30931 ft 541 kts 91°
2026-05-06 01:59 23.25994 77.89542 30927 ft 542 kts 91°
2026-05-06 01:59 23.25635 77.97743 30916 ft 543 kts 91°
2026-05-06 02:00 23.25267 78.05979 30918 ft 542 kts 92°
2026-05-06 02:00 23.24897 78.14201 30921 ft 543 kts 91°
2026-05-06 02:01 23.24520 78.22409 30921 ft 543 kts 91°
2026-05-06 02:01 23.24141 78.30658 30923 ft 543 kts 92°
2026-05-06 02:02 23.23751 78.38875 30912 ft 542 kts 91°
2026-05-06 02:02 23.23372 78.47052 30914 ft 542 kts 91°
2026-05-06 02:03 23.22978 78.55280 30915 ft 543 kts 92°
2026-05-06 02:03 23.22578 78.63504 30914 ft 542 kts 92°
2026-05-06 02:04 23.22171 78.71741 30903 ft 540 kts 92°
2026-05-06 02:04 23.21977 78.79967 30910 ft 541 kts 89°
2026-05-06 02:05 23.21859 78.88210 30923 ft 542 kts 90°
2026-05-06 02:05 23.21744 78.96401 30918 ft 542 kts 90°
2026-05-06 02:06 23.21616 79.04624 30915 ft 542 kts 90°
2026-05-06 02:06 23.21482 79.12863 30926 ft 542 kts 90°
2026-05-06 02:07 23.21343 79.21124 30927 ft 543 kts 90°
2026-05-06 02:07 23.21203 79.29378 30925 ft 543 kts 90°
2026-05-06 02:08 23.21060 79.37583 30930 ft 542 kts 90°
2026-05-06 02:08 23.20910 79.45830 30926 ft 544 kts 90°
2026-05-06 02:09 23.20754 79.54076 30909 ft 542 kts 90°
2026-05-06 02:09 23.20463 79.62277 30917 ft 542 kts 92°
2026-05-06 02:10 23.20128 79.70520 30902 ft 542 kts 92°
2026-05-06 02:10 23.19774 79.78711 30918 ft 543 kts 93°
2026-05-06 02:11 23.19415 79.86984 30928 ft 544 kts 93°
2026-05-06 02:11 23.19061 79.95233 30923 ft 544 kts 93°
2026-05-06 02:12 23.18696 80.03418 30924 ft 543 kts 92°
2026-05-06 02:12 23.18290 80.11670 30928 ft 543 kts 94°
2026-05-06 02:13 23.17872 80.19918 30940 ft 544 kts 94°
2026-05-06 02:13 23.17434 80.28134 30948 ft 544 kts 94°
2026-05-06 02:14 23.16999 80.36401 30954 ft 545 kts 94°
2026-05-06 02:14 23.16567 80.44616 30955 ft 544 kts 93°
2026-05-06 02:15 23.16125 80.52878 30968 ft 544 kts 94°
2026-05-06 02:15 23.15684 80.61124 30976 ft 545 kts 93°
2026-05-06 02:16 23.15231 80.69323 30966 ft 545 kts 94°
2026-05-06 02:16 23.14784 80.77579 30976 ft 544 kts 94°
2026-05-06 02:17 23.14339 80.85860 30988 ft 545 kts 94°
2026-05-06 02:17 23.13881 80.94137 30994 ft 546 kts 94°
2026-05-06 02:18 23.13501 81.01009 30997 ft 547 kts 94°
2026-05-06 02:18 23.12965 81.10717 31001 ft 548 kts 94°
2026-05-06 02:19 23.12494 81.19001 31000 ft 548 kts 94°
2026-05-06 02:19 23.12029 81.27277 30998 ft 546 kts 94°
2026-05-06 02:20 23.11322 81.39676 31007 ft 547 kts 94°
2026-05-06 02:21 23.10834 81.47967 31003 ft 547 kts 94°
2026-05-06 02:21 23.10351 81.56213 30999 ft 547 kts 94°
2026-05-06 02:22 23.09872 81.64500 30991 ft 547 kts 94°
2026-05-06 02:22 23.09368 81.72847 30975 ft 548 kts 95°
2026-05-06 02:23 23.08865 81.81163 30966 ft 547 kts 95°
2026-05-06 02:23 23.08368 81.89542 30961 ft 546 kts 95°
2026-05-06 02:24 23.07858 81.97840 30966 ft 546 kts 95°
2026-05-06 02:24 23.07337 82.06104 30962 ft 546 kts 95°
2026-05-06 02:25 23.06837 82.14427 30958 ft 545 kts 95°
2026-05-06 02:25 23.06444 82.22700 30946 ft 545 kts 94°
2026-05-06 02:26 23.06073 82.30983 30943 ft 546 kts 94°
2026-05-06 02:26 23.05709 82.39291 30951 ft 549 kts 94°
2026-05-06 02:27 23.05341 82.47677 30948 ft 548 kts 94°
2026-05-06 02:27 23.04958 82.56065 30951 ft 548 kts 94°
2026-05-06 02:28 23.04582 82.64451 30954 ft 547 kts 94°
2026-05-06 02:28 23.04209 82.72694 30937 ft 545 kts 95°
2026-05-06 02:29 23.03814 82.81020 30956 ft 547 kts 94°
2026-05-06 02:29 23.03430 82.89338 30960 ft 547 kts 95°
2026-05-06 02:30 23.03028 82.97662 30964 ft 546 kts 95°
2026-05-06 02:30 23.02637 83.05956 30961 ft 545 kts 94°
2026-05-06 02:31 23.02238 83.14170 30966 ft 545 kts 94°
2026-05-06 02:31 23.01827 83.22414 30974 ft 545 kts 95°
2026-05-06 02:32 23.01417 83.30696 30988 ft 546 kts 94°
2026-05-06 02:32 23.01003 83.38972 30995 ft 547 kts 94°
2026-05-06 02:33 23.00580 83.47254 31003 ft 547 kts 94°
2026-05-06 02:33 23.00444 83.50020 31002 ft 546 kts 94°
2026-05-06 02:34 22.99737 83.63750 31015 ft 546 kts 95°
2026-05-06 02:34 22.99305 83.72019 31011 ft 545 kts 95°
2026-05-06 02:35 22.98864 83.80283 31030 ft 545 kts 95°
2026-05-06 02:35 22.98434 83.88529 31038 ft 545 kts 95°
2026-05-06 02:36 22.97997 83.96722 31040 ft 544 kts 95°
2026-05-06 02:36 22.97544 84.04979 31043 ft 545 kts 95°
2026-05-06 02:37 22.97110 84.13194 31031 ft 543 kts 95°
2026-05-06 02:37 22.96495 84.21400 31032 ft 545 kts 96°
2026-05-06 02:38 22.95904 84.29641 31028 ft 547 kts 96°
2026-05-06 02:38 22.95296 84.37926 31020 ft 547 kts 96°
2026-05-06 02:39 22.94693 84.46171 31007 ft 546 kts 96°
2026-05-06 02:39 22.94086 84.54421 31006 ft 546 kts 96°
2026-05-06 02:40 22.93468 84.62653 30994 ft 545 kts 96°
2026-05-06 02:40 22.92858 84.70888 30963 ft 545 kts 97°
2026-05-06 02:41 22.92234 84.79068 30967 ft 545 kts 97°
2026-05-06 02:41 22.91606 84.87320 30969 ft 545 kts 97°
2026-05-06 02:42 22.90976 84.95528 30957 ft 545 kts 97°
2026-05-06 02:42 22.90336 85.03763 30951 ft 544 kts 97°
2026-05-06 02:43 22.89715 85.11983 30960 ft 544 kts 97°
2026-05-06 02:43 22.89085 85.20199 30949 ft 544 kts 97°
2026-05-06 02:44 22.88443 85.28432 30947 ft 544 kts 97°
2026-05-06 02:44 22.87805 85.36584 30937 ft 543 kts 97°
2026-05-06 02:45 22.87155 85.44811 30928 ft 542 kts 97°
2026-05-06 02:45 22.86514 85.52980 30931 ft 543 kts 97°
2026-05-06 02:46 22.85862 85.61191 30926 ft 544 kts 97°
2026-05-06 02:46 22.85207 85.69403 30896 ft 543 kts 97°
2026-05-06 02:47 22.84549 85.77568 30896 ft 541 kts 97°
2026-05-06 02:47 22.83889 85.85718 30904 ft 542 kts 97°
2026-05-06 02:48 22.83225 85.93860 30901 ft 542 kts 97°
2026-05-06 02:48 22.82546 86.02027 30894 ft 542 kts 97°
2026-05-06 02:49 22.81865 86.10221 30885 ft 542 kts 97°
2026-05-06 02:49 22.81239 86.18388 30882 ft 543 kts 96°
2026-05-06 02:50 22.80800 86.26621 30880 ft 542 kts 96°
2026-05-06 02:50 22.80355 86.34791 30883 ft 541 kts 96°
2026-05-06 02:51 22.79905 86.42917 30891 ft 541 kts 95°
2026-05-06 02:51 22.79449 86.51096 30907 ft 542 kts 95°
2026-05-06 02:52 22.78990 86.59300 30908 ft 543 kts 95°
2026-05-06 02:52 22.78537 86.67516 30893 ft 542 kts 96°
2026-05-06 02:53 22.78070 86.75698 30884 ft 541 kts 96°
2026-05-06 02:53 22.77605 86.83833 30888 ft 542 kts 96°
2026-05-06 02:54 22.77133 86.92027 30880 ft 543 kts 96°
2026-05-06 02:54 22.76666 87.00230 30879 ft 543 kts 96°
2026-05-06 02:55 22.76176 87.08450 30871 ft 543 kts 96°
2026-05-06 02:55 22.75689 87.16608 30868 ft 543 kts 96°
2026-05-06 02:56 22.75200 87.24843 30872 ft 543 kts 96°
2026-05-06 02:56 22.74712 87.32992 30863 ft 541 kts 96°
2026-05-06 02:57 22.74206 87.41195 30859 ft 542 kts 96°
2026-05-06 02:57 22.73703 87.49380 30854 ft 542 kts 96°
2026-05-06 02:58 22.73206 87.57513 30847 ft 541 kts 96°
2026-05-06 02:58 22.72699 87.65699 30848 ft 541 kts 96°
2026-05-06 02:59 22.72188 87.73817 30835 ft 540 kts 96°
2026-05-06 02:59 22.71671 87.82006 30848 ft 540 kts 96°
2026-05-06 03:00 22.71148 87.90157 30866 ft 542 kts 96°
2026-05-06 03:00 22.70616 87.98358 30865 ft 542 kts 96°
2026-05-06 03:01 22.70091 88.06509 30869 ft 540 kts 96°
2026-05-06 03:01 22.69558 88.14661 30871 ft 541 kts 96°
2026-05-06 03:02 22.69018 88.22907 30873 ft 542 kts 96°
2026-05-06 03:02 22.68475 88.31066 30864 ft 541 kts 96°
2026-05-06 03:03 22.67923 88.39242 30864 ft 541 kts 96°
2026-05-06 03:03 22.67215 88.47410 30847 ft 537 kts 104°
2026-05-06 03:04 22.65810 88.55379 30885 ft 540 kts 103°
2026-05-06 03:04 22.64473 88.63398 30879 ft 539 kts 102°
2026-05-06 03:05 22.63137 88.71439 30867 ft 538 kts 103°
2026-05-06 03:05 22.61810 88.79401 30877 ft 537 kts 103°
2026-05-06 03:06 22.60469 88.87393 30883 ft 537 kts 103°
2026-05-06 03:06 22.59230 88.95386 30879 ft 538 kts 99°
2026-05-06 03:07 22.58347 89.03508 30890 ft 538 kts 99°
2026-05-06 03:07 22.57450 89.11594 30880 ft 538 kts 99°
2026-05-06 03:08 22.56554 89.19682 30871 ft 537 kts 99°
2026-05-06 03:08 22.55662 89.27752 30869 ft 536 kts 99°
2026-05-06 03:09 22.54769 89.35779 30868 ft 537 kts 99°
2026-05-06 03:09 22.53875 89.43808 30872 ft 537 kts 99°
2026-05-06 03:10 22.52962 89.51859 30873 ft 537 kts 99°
2026-05-06 03:10 22.52052 89.59946 30877 ft 537 kts 99°
2026-05-06 03:11 22.51142 89.67971 30865 ft 537 kts 99°
2026-05-06 03:11 22.50219 89.76036 30873 ft 537 kts 99°
2026-05-06 03:12 22.49304 89.84074 30882 ft 537 kts 99°
2026-05-06 03:12 22.48378 89.92123 30880 ft 537 kts 99°
2026-05-06 03:13 22.47442 90.00192 30874 ft 537 kts 99°
2026-05-06 03:13 22.46511 90.08234 30868 ft 536 kts 99°
2026-05-06 03:14 22.45567 90.16301 30867 ft 536 kts 99°
2026-05-06 03:14 22.44629 90.24342 30869 ft 535 kts 99°
2026-05-06 03:15 22.43697 90.32308 30866 ft 535 kts 99°
2026-05-06 03:15 22.42744 90.40365 30867 ft 534 kts 99°
2026-05-06 03:16 22.41797 90.48324 30870 ft 534 kts 99°
2026-05-06 03:16 22.40852 90.56321 30872 ft 534 kts 99°
2026-05-06 03:17 22.39886 90.64344 30876 ft 535 kts 99°
2026-05-06 03:17 22.38931 90.72356 30865 ft 534 kts 99°
2026-05-06 03:18 22.37964 90.80324 30873 ft 533 kts 99°
2026-05-06 03:18 22.37002 90.88295 30879 ft 532 kts 99°
2026-05-06 03:19 22.36029 90.96262 30883 ft 532 kts 99°
2026-05-06 03:19 22.35063 91.04211 30886 ft 532 kts 99°
2026-05-06 03:20 22.33588 91.16193 30888 ft 532 kts 99°
2026-05-06 03:20 22.32609 91.24129 30888 ft 532 kts 100°
2026-05-06 03:21 22.31618 91.32117 30890 ft 532 kts 99°
2026-05-06 03:21 22.30672 91.40096 30888 ft 533 kts 98°
2026-05-06 03:22 22.29744 91.48048 30888 ft 532 kts 98°
2026-05-06 03:22 22.28837 91.55989 30886 ft 531 kts 99°
2026-05-06 03:23 22.27919 91.63959 30887 ft 531 kts 98°
2026-05-06 03:23 22.26993 91.71909 30882 ft 530 kts 99°
2026-05-06 03:24 22.26084 91.79864 30885 ft 530 kts 99°
2026-05-06 03:24 22.25869 91.83855 30855 ft 532 kts 88°
2026-05-06 03:24 22.26332 91.87876 30874 ft 533 kts 80°
2026-05-06 03:25 22.27574 91.95830 30909 ft 535 kts 82°
2026-05-06 03:25 22.28704 92.03805 30891 ft 534 kts 82°
2026-05-06 03:26 22.29812 92.11750 30880 ft 532 kts 82°
2026-05-06 03:26 22.30908 92.19703 30881 ft 533 kts 82°
2026-05-06 03:27 22.32004 92.27651 30884 ft 534 kts 82°
2026-05-06 03:27 22.33093 92.35638 30884 ft 534 kts 82°
2026-05-06 03:28 22.34190 92.43617 30895 ft 534 kts 82°
2026-05-06 03:28 22.35265 92.51573 30902 ft 534 kts 82°
2026-05-06 03:29 22.36347 92.59560 30910 ft 534 kts 82°
2026-05-06 03:29 22.37424 92.67542 30906 ft 534 kts 82°
2026-05-06 03:30 22.38491 92.75462 30911 ft 533 kts 82°
2026-05-06 03:30 22.39572 92.83506 30938 ft 533 kts 82°
2026-05-06 03:31 22.40633 92.91438 30972 ft 533 kts 82°
2026-05-06 03:31 22.41700 92.99460 31016 ft 533 kts 82°
2026-05-06 03:32 22.42758 93.07409 31047 ft 534 kts 82°
2026-05-06 03:32 22.43817 93.15412 31048 ft 534 kts 82°
2026-05-06 03:33 22.44871 93.23396 31050 ft 533 kts 82°
2026-05-06 03:33 22.45917 93.31400 31048 ft 533 kts 82°
2026-05-06 03:34 22.46959 93.39348 31076 ft 532 kts 82°
2026-05-06 03:34 22.47997 93.47322 31132 ft 532 kts 82°
2026-05-06 03:35 22.49033 93.55296 31181 ft 531 kts 82°
2026-05-06 03:35 22.50063 93.63251 31168 ft 531 kts 82°
2026-05-06 03:36 22.51078 93.71156 31120 ft 529 kts 83°
2026-05-06 03:36 22.52094 93.79094 31077 ft 528 kts 82°
2026-05-06 03:37 22.53106 93.86999 31036 ft 531 kts 82°
2026-05-06 03:37 22.54116 93.94962 30998 ft 532 kts 82°
2026-05-06 03:38 22.55121 94.02914 30937 ft 530 kts 82°
2026-05-06 03:38 22.56134 94.10889 30925 ft 529 kts 82°
2026-05-06 03:39 22.57126 94.18814 30948 ft 530 kts 82°
2026-05-06 03:39 22.58125 94.26794 30971 ft 530 kts 83°
2026-05-06 03:40 22.59112 94.34712 30973 ft 530 kts 82°
2026-05-06 03:40 22.60099 94.42683 30946 ft 530 kts 82°
2026-05-06 03:41 22.61073 94.50584 30915 ft 529 kts 82°
2026-05-06 03:41 22.62055 94.58524 30885 ft 528 kts 82°
2026-05-06 03:42 22.63025 94.66430 30877 ft 527 kts 83°
2026-05-06 03:42 22.63985 94.74340 30874 ft 527 kts 83°
2026-05-06 03:43 22.64952 94.82271 30858 ft 527 kts 83°
2026-05-06 03:43 22.65909 94.90192 30857 ft 526 kts 83°
2026-05-06 03:44 22.66864 94.98085 30858 ft 526 kts 83°
2026-05-06 03:44 22.67806 95.05982 30856 ft 526 kts 83°
2026-05-06 03:45 22.68745 95.13854 30852 ft 527 kts 83°
2026-05-06 03:45 22.69696 95.21824 30852 ft 527 kts 83°
2026-05-06 03:46 22.70635 95.29713 30848 ft 527 kts 83°
2026-05-06 03:46 22.71571 95.37611 30846 ft 527 kts 83°
2026-05-06 03:47 22.72494 95.45528 30840 ft 527 kts 83°
2026-05-06 03:47 22.73419 95.53436 30847 ft 527 kts 83°
2026-05-06 03:48 22.74338 95.61346 30841 ft 526 kts 83°
2026-05-06 03:48 22.75255 95.69235 30837 ft 525 kts 83°
2026-05-06 03:49 22.76163 95.77119 30846 ft 525 kts 83°
2026-05-06 03:49 22.77079 95.85037 30859 ft 526 kts 83°
2026-05-06 03:50 22.77980 95.92915 30858 ft 526 kts 83°
2026-05-06 03:50 22.78879 96.00824 30859 ft 526 kts 83°
2026-05-06 03:51 22.79774 96.08738 30854 ft 525 kts 83°
2026-05-06 03:51 22.80666 96.16633 30895 ft 526 kts 83°
2026-05-06 03:52 22.81555 96.24516 30934 ft 526 kts 83°
2026-05-06 03:52 22.82446 96.32479 30968 ft 527 kts 83°
2026-05-06 03:53 22.83327 96.40365 30985 ft 525 kts 83°
2026-05-06 03:53 22.84200 96.48267 31004 ft 524 kts 83°
2026-05-06 03:54 22.85069 96.56153 31026 ft 525 kts 83°
2026-05-06 03:54 22.85941 96.64039 31029 ft 525 kts 83°
2026-05-06 03:55 22.86802 96.71941 31028 ft 523 kts 83°
2026-05-06 03:55 22.87664 96.79841 31036 ft 524 kts 84°
2026-05-06 03:56 22.88517 96.87736 31040 ft 525 kts 84°
2026-05-06 03:56 22.89369 96.95609 31053 ft 525 kts 84°
2026-05-06 03:57 22.90218 97.03536 31047 ft 524 kts 84°
2026-05-06 03:57 22.91063 97.11413 31061 ft 523 kts 84°
2026-05-06 03:58 22.91901 97.19308 31076 ft 523 kts 84°
2026-05-06 03:58 22.92731 97.27215 31099 ft 524 kts 83°
2026-05-06 03:59 22.93566 97.35091 31101 ft 525 kts 83°
2026-05-06 03:59 22.94401 97.43007 31077 ft 523 kts 84°
2026-05-06 04:00 22.95218 97.50835 31046 ft 521 kts 84°
2026-05-06 04:00 22.96029 97.58690 31031 ft 522 kts 84°
2026-05-06 04:01 22.96847 97.66594 31033 ft 524 kts 84°
2026-05-06 04:01 22.97665 97.74450 31018 ft 523 kts 82°
2026-05-06 04:02 22.98525 97.78343 30995 ft 523 kts 70°
2026-05-06 04:02 22.99910 97.82030 31038 ft 522 kts 66°
2026-05-06 04:02 23.02562 97.89442 31054 ft 523 kts 69°
2026-05-06 04:03 23.05162 97.96880 31048 ft 524 kts 69°
2026-05-06 04:03 23.07733 98.04323 31051 ft 524 kts 69°
2026-05-06 04:04 23.10281 98.11719 31061 ft 521 kts 69°
2026-05-06 04:04 23.12842 98.19154 31075 ft 520 kts 69°
2026-05-06 04:05 23.15377 98.26558 31107 ft 520 kts 69°
2026-05-06 04:05 23.17914 98.33979 31123 ft 521 kts 69°
2026-05-06 04:06 23.20450 98.41401 31107 ft 519 kts 69°
2026-05-06 04:06 23.22985 98.48804 31093 ft 519 kts 69°
2026-05-06 04:07 23.25511 98.56220 31088 ft 520 kts 69°
2026-05-06 04:07 23.28040 98.63650 31094 ft 520 kts 69°
2026-05-06 04:08 23.30557 98.71073 31099 ft 519 kts 69°
2026-05-06 04:08 23.33069 98.78479 31113 ft 518 kts 69°
2026-05-06 04:09 23.35587 98.85927 31119 ft 519 kts 69°
2026-05-06 04:09 23.38042 98.93333 31109 ft 519 kts 70°
2026-05-06 04:10 23.40391 99.00816 31094 ft 517 kts 70°
2026-05-06 04:10 23.42720 99.08270 31101 ft 516 kts 70°
2026-05-06 04:11 23.45047 99.15718 31143 ft 518 kts 70°
2026-05-06 04:11 23.47370 99.23163 31176 ft 517 kts 70°
2026-05-06 04:12 23.49706 99.30644 31203 ft 517 kts 70°
2026-05-06 04:12 23.52002 99.38084 31197 ft 517 kts 70°
2026-05-06 04:13 23.55054 99.45201 31169 ft 512 kts 56°
2026-05-06 04:13 23.58652 99.51937 31161 ft 512 kts 58°
2026-05-06 04:14 23.62200 99.58695 31155 ft 512 kts 58°
2026-05-06 04:14 23.65778 99.65545 31166 ft 513 kts 59°
2026-05-06 04:15 23.69307 99.72327 31179 ft 513 kts 59°
2026-05-06 04:15 23.72875 99.79189 31198 ft 514 kts 59°
2026-05-06 04:16 23.76404 99.85994 31215 ft 514 kts 59°
2026-05-06 04:16 23.79954 99.92851 31220 ft 514 kts 59°
2026-05-06 04:17 23.83485 99.99667 31216 ft 511 kts 59°
2026-05-06 04:17 23.87022 100.06516 31220 ft 511 kts 59°
2026-05-06 04:18 23.90531 100.13323 31220 ft 511 kts 59°
2026-05-06 04:18 23.94040 100.20121 31230 ft 513 kts 59°
2026-05-06 04:19 23.97567 100.26979 31245 ft 514 kts 59°
2026-05-06 04:19 24.01109 100.33871 31252 ft 514 kts 59°
2026-05-06 04:20 24.04621 100.40720 31224 ft 514 kts 59°
2026-05-06 04:20 24.08137 100.47567 31180 ft 514 kts 59°
2026-05-06 04:21 24.11638 100.54450 31136 ft 514 kts 60°
2026-05-06 04:21 24.15106 100.61330 31139 ft 513 kts 59°
2026-05-06 04:22 24.18572 100.68227 31151 ft 513 kts 59°
2026-05-06 04:23 24.23763 100.78573 31181 ft 514 kts 59°
2026-05-06 04:23 24.27216 100.85490 31181 ft 514 kts 59°
2026-05-06 04:24 24.30667 100.92398 31178 ft 514 kts 59°
2026-05-06 04:24 24.34130 100.99349 31165 ft 514 kts 59°
2026-05-06 04:25 24.37602 101.06325 31172 ft 516 kts 59°
2026-05-06 04:25 24.41052 101.13264 31166 ft 513 kts 60°
2026-05-06 04:26 24.44481 101.20182 31165 ft 514 kts 59°
2026-05-06 04:26 24.47921 101.27125 31150 ft 515 kts 60°
2026-05-06 04:27 24.51356 101.34067 31122 ft 514 kts 59°
2026-05-06 04:27 24.54777 101.40987 31102 ft 513 kts 60°
2026-05-06 04:28 24.58218 101.47941 31109 ft 515 kts 60°
2026-05-06 04:28 24.61642 101.54943 31108 ft 515 kts 60°
2026-05-06 04:29 24.65025 101.61904 31119 ft 515 kts 60°
2026-05-06 04:29 24.68406 101.68895 31124 ft 515 kts 60°
2026-05-06 04:30 24.71763 101.75831 31139 ft 513 kts 60°
2026-05-06 04:30 24.75143 101.82850 31151 ft 512 kts 60°
2026-05-06 04:31 24.78515 101.89855 31155 ft 513 kts 60°
2026-05-06 04:31 24.81885 101.96855 31147 ft 514 kts 60°
2026-05-06 04:32 24.85244 102.03856 31129 ft 515 kts 60°
2026-05-06 04:32 24.88619 102.10908 31126 ft 515 kts 60°
2026-05-06 04:33 24.91957 102.17886 31135 ft 513 kts 60°
2026-05-06 04:33 24.95319 102.24918 31143 ft 513 kts 60°
2026-05-06 04:34 24.98681 102.31965 31159 ft 513 kts 60°
2026-05-06 04:34 25.02014 102.38957 31195 ft 513 kts 60°
2026-05-06 04:35 25.05338 102.45967 31201 ft 512 kts 63°
2026-05-06 04:35 25.06608 102.49667 31175 ft 515 kts 75°
2026-05-06 04:35 25.07177 102.53614 31188 ft 515 kts 87°
2026-05-06 04:35 25.07016 102.57539 31199 ft 514 kts 99°
2026-05-06 04:36 25.06126 102.61400 31200 ft 512 kts 112°
2026-05-06 04:36 25.04545 102.64966 31205 ft 509 kts 125°
2026-05-06 04:36 25.02427 102.68106 31207 ft 505 kts 131°
2026-05-06 04:37 24.98653 102.74596 31206 ft 509 kts 120°
2026-05-06 04:37 24.95237 102.81638 31193 ft 509 kts 120°
2026-05-06 04:38 24.91911 102.88611 31192 ft 510 kts 118°
2026-05-06 04:38 24.88816 102.95719 31193 ft 509 kts 118°
2026-05-06 04:39 24.85715 103.02782 31202 ft 509 kts 118°
2026-05-06 04:39 24.82613 103.09857 31208 ft 509 kts 117°
2026-05-06 04:40 24.79524 103.16891 31198 ft 509 kts 117°
2026-05-06 04:40 24.76421 103.23945 31185 ft 508 kts 117°
2026-05-06 04:41 24.73315 103.31001 31179 ft 508 kts 118°
2026-05-06 04:41 24.70215 103.38034 31183 ft 507 kts 117°
2026-05-06 04:42 24.67104 103.45058 31184 ft 507 kts 117°
2026-05-06 04:42 24.63997 103.52090 31182 ft 508 kts 117°
2026-05-06 04:43 24.60863 103.59167 31177 ft 509 kts 118°
2026-05-06 04:43 24.57751 103.66148 31170 ft 508 kts 118°
2026-05-06 04:44 24.54662 103.73182 31157 ft 507 kts 116°
2026-05-06 04:44 24.53505 103.76797 31127 ft 509 kts 105°
2026-05-06 04:44 24.52754 103.80733 31170 ft 509 kts 103°
2026-05-06 04:45 24.51148 103.88390 31178 ft 511 kts 104°
2026-05-06 04:45 24.49518 103.96047 31154 ft 511 kts 104°
2026-05-06 04:46 24.47883 104.03738 31120 ft 511 kts 104°
2026-05-06 04:46 24.46248 104.11360 31118 ft 512 kts 104°
2026-05-06 04:47 24.44608 104.19002 31090 ft 512 kts 104°
2026-05-06 04:47 24.42968 104.26621 31073 ft 510 kts 104°
2026-05-06 04:48 24.41315 104.34280 31069 ft 511 kts 104°
2026-05-06 04:48 24.39661 104.41904 31061 ft 512 kts 104°
2026-05-06 04:49 24.38002 104.49552 31052 ft 512 kts 104°
2026-05-06 04:49 24.36332 104.57223 31040 ft 510 kts 104°
2026-05-06 04:50 24.34671 104.64832 31031 ft 510 kts 104°
2026-05-06 04:50 24.33013 104.72430 31031 ft 512 kts 104°
2026-05-06 04:51 24.31344 104.80042 31028 ft 512 kts 104°
2026-05-06 04:51 24.29668 104.87670 31020 ft 511 kts 104°
2026-05-06 04:52 24.27969 104.95365 31014 ft 513 kts 104°
2026-05-06 04:52 24.26282 105.03011 31008 ft 514 kts 104°
2026-05-06 04:53 24.24573 105.10716 30994 ft 513 kts 104°
2026-05-06 04:53 24.22888 105.18336 30984 ft 512 kts 104°
2026-05-06 04:54 24.21119 105.25964 30979 ft 511 kts 107°
2026-05-06 04:54 24.19276 105.33546 30980 ft 511 kts 106°
2026-05-06 04:55 24.17442 105.41088 30975 ft 511 kts 105°
2026-05-06 04:55 24.15604 105.48655 30960 ft 511 kts 105°
2026-05-06 04:56 24.13762 105.56220 30946 ft 511 kts 105°
2026-05-06 04:56 24.11924 105.63759 30939 ft 511 kts 105°
2026-05-06 04:57 24.10118 105.71350 30921 ft 510 kts 104°
2026-05-06 04:57 24.08622 105.78991 30925 ft 510 kts 103°
2026-05-06 04:58 24.07093 105.86659 30918 ft 510 kts 103°
2026-05-06 04:58 24.05577 105.94299 30903 ft 511 kts 103°
2026-05-06 04:59 24.04057 106.01945 30883 ft 511 kts 103°
2026-05-06 04:59 24.02524 106.09595 30865 ft 510 kts 103°
2026-05-06 05:00 24.01001 106.17205 30860 ft 507 kts 103°
2026-05-06 05:00 23.99470 106.24814 30869 ft 510 kts 103°
2026-05-06 05:01 23.97925 106.32468 30870 ft 511 kts 103°
2026-05-06 05:01 23.96380 106.40112 30871 ft 509 kts 103°
2026-05-06 05:02 23.94834 106.47737 30878 ft 510 kts 103°
2026-05-06 05:02 23.93292 106.55346 30879 ft 510 kts 103°
2026-05-06 05:03 23.92072 106.63000 30851 ft 510 kts 93°
2026-05-06 05:03 23.91623 106.70808 30873 ft 509 kts 95°
2026-05-06 05:04 23.91115 106.78584 30871 ft 510 kts 95°
2026-05-06 05:04 23.90588 106.86379 30870 ft 509 kts 94°
2026-05-06 05:05 23.90063 106.94194 30880 ft 509 kts 94°
2026-05-06 05:05 23.89730 106.99167 30879 ft 510 kts 94°